BLUEBIRD C

Last updated on Fri Sep 13 2024 00:02:05 GMT+0000 (Coordinated Universal Time)

1 61047U 24163C 24256.78203175 -.00000319 00000+0 00000+0 0 9998 2 61047 52.9790 19.9552 0011668 323.6297 154.2336 15.17273751 55
UTC large
Height (km)
Speed (km/s)
/
Latitude / Longitude
Inclination (degrees)
Orbital Period (minutes)
Azimuth
Elevation
Range (km)
Doppler Factor

Next 0 passes for location: London (51.5072 / 0.1276)

Sorry there are no passes over London.